Location: Borbetomagus
(49.6328°N, 8.3592°E)
Time: 10:33:51
(UTC+00:00)

Ariane Rocket - Pass Details

Date: 19 May 2025
Orbit: 755 x 765 km, 98.5° (Epoch: 23 June)

Event Time Altitude Azimuth Distance (km) Brightness Sun altitude
Exits shadow 21:17:05 17° 186° (S) 1,870 4.5 -15.0°
Maximum altitude 21:20:55 55° 259° (W) 920 3.5 -15.3°
Drops below altitude 10° 21:25:55 10° 338° (NNW) 2,311 6.8 -15.7°
Sets 21:28:17 0° 343° (NNW) 3,243 7.9 -15.9°
